CW7400 Weather Reports


Display with metric or nautical units.
time (UTC)temp
F
wind
direction
speed
MPH
gust
MPH
rain 1hr
in
rain 24hr
in
rain mn
in
humidity
%
barometer
mb
20260502232703 56 0 0.0 0.0 0.00 0.09 0.09 82 1012.1
20260502231824 56 0 0.0 0.0 0.00 0.09 0.09 82 1012.2
20260502230903 56 0 0.0 0.0 0.00 0.09 0.09 82 1012.1
20260502230004 56 0 0.0 0.0 0.00 0.09 0.09 82 1012.1
20260502225403 56 0 0.0 0.0 0.00 0.09 0.09 82 1012.0
20260502224524 56 0 0.0 0.0 0.00 0.09 0.09 81 1012.0
20260502223603 57 0 0.0 0.0 0.00 0.09 0.09 81 1012.0
20260502222724 57 0 0.0 0.0 0.00 0.09 0.09 80 1012.0
20260502221803 57 0 0.0 0.0 0.00 0.09 0.09 81 1012.0
20260502220903 57 0 0.0 0.0 0.00 0.09 0.09 79 1011.9
20260502220004 57 0 0.0 2.0 0.00 0.09 0.09 79 1011.8
20260502215403 57 0 0.0 2.0 0.00 0.09 0.09 78 1011.7
20260502214503 57 0 0.0 0.0 0.00 0.09 0.09 78 1011.8
20260502213603 58 0 0.0 0.0 0.00 0.09 0.09 78 1011.7
20260502212703 58 0 0.0 0.0 0.00 0.09 0.09 78 1011.6
20260502211824 58 0 0.0 0.0 0.00 0.09 0.09 76 1011.8
20260502210903 58 0 0.0 4.0 0.00 0.09 0.09 76 1011.7
20260502210024 58 0 0.0 0.0 0.00 0.09 0.09 76 1011.7
20260502205424 58 0 0.0 2.0 0.00 0.09 0.09 75 1011.7
20260502204503 58 0 0.0 2.0 0.00 0.09 0.09 76 1011.7
20260502203603 58 0 0.0 2.0 0.00 0.09 0.09 75 1011.8
20260502202703 58 0 0.0 2.0 0.00 0.09 0.09 75 1011.8
20260502201803 58 0 0.0 2.0 0.00 0.09 0.09 74 1011.9
20260502200903 59 0 0.0 4.0 0.00 0.09 0.09 75 1011.7
20260502200003 59 0 0.0 6.0 0.00 0.09 0.09 74 1011.6
20260502195424 60 0 0.0 4.0 0.00 0.09 0.09 74 1011.7
20260502194503 59 0 0.0 2.0 0.00 0.09 0.09 74 1011.9
20260502193603 59 0 0.0 4.0 0.00 0.09 0.09 74 1012.0
20260502192703 59 0 0.0 2.0 0.00 0.09 0.09 75 1012.1
20260502191803 60 0 0.0 4.0 0.00 0.09 0.09 76 1012.3
20260502190903 60 0 0.0 6.0 0.00 0.09 0.09 74 1012.2
20260502190004 59 0 0.0 6.0 0.00 0.09 0.09 76 1012.3
20260502185424 59 0 0.0 4.0 0.00 0.09 0.09 77 1012.4
20260502184503 59 0 0.0 4.0 0.00 0.09 0.09 75 1012.4
20260502183603 59 0 0.0 0.0 0.00 0.09 0.09 75 1012.6
20260502182703 59 0 0.0 4.0 0.00 0.09 0.09 78 1012.6
20260502181803 59 0 0.0 2.0 0.00 0.09 0.09 76 1012.6
20260502180903 58 0 0.0 4.0 0.00 0.09 0.09 79 1012.8
20260502163603 55 0 0.0 4.0 0.01 0.09 0.09 86 1013.7
20260502162724 54 0 0.0 4.0 0.01 0.09 0.09 85 1013.9
20260502161803 55 0 0.0 4.0 0.01 0.09 0.09 85 1013.9
20260502160903 55 0 0.0 6.0 0.01 0.09 0.09 86 1014.1
20260502151803 55 0 0.0 4.0 0.01 0.08 0.08 86 1013.7
20260502150903 55 0 0.0 4.0 0.01 0.08 0.08 87 1014.0
20260502123625 53 0 0.0 2.0 0.00 0.01 0.01 85 1013.2
20260502122704 53 0 0.0 2.0 0.00 0.01 0.01 85 1013.0
20260502121804 53 0 0.0 0.0 0.01 0.01 0.01 86 1012.7
20260502120925 53 0 0.0 0.0 0.01 0.01 0.01 86 1012.7
20260502115404 53 0 0.0 2.0 0.01 0.01 0.01 86 1012.8
20260502114504 53 0 0.0 0.0 0.01 0.01 0.01 86 1012.8
20260502113604 53 0 0.0 2.0 0.01 0.01 0.01 86 1012.9
20260502112704 53 0 0.0 0.0 0.01 0.01 0.01 86 1012.8
20260502111825 53 0 0.0 0.0 0.00 0.00 0.00 86 1012.8
20260502110904 53 0 0.0 0.0 0.00 0.00 0.00 86 1013.0
20260502110026 53 0 0.0 0.0 0.00 0.00 0.00 86 1013.1
20260502105404 53 0 0.0 0.0 0.00 0.00 0.00 87 1013.1
20260502104504 53 0 0.0 0.0 0.00 0.00 0.00 87 1013.1
20260502103604 53 0 0.0 0.0 0.00 0.00 0.00 87 1013.1
20260502102704 53 0 0.0 0.0 0.00 0.00 0.00 87 1013.1
20260502101804 53 0 0.0 0.0 0.00 0.00 0.00 87 1013.2
20260502100904 53 0 0.0 0.0 0.00 0.00 0.00 87 1013.1
20260502090904 53 0 0.0 0.0 0.00 0.00 0.00 88 1013.2
20260502070925 53 0 0.0 0.0 0.00 0.00 0.00 89 1012.0
20260502070005 53 0 0.0 0.0 0.00 0.00 0.00 89 1012.0
20260502065425 53 0 0.0 0.0 0.00 0.00 0.00 89 1012.1
20260502064525 53 0 0.0 0.0 0.00 0.00 0.00 89 1012.1
20260502063604 53 0 0.0 0.0 0.00 0.00 0.00 89 1012.2
20260502062704 53 0 0.0 0.0 0.00 0.00 0.00 89 1012.3
20260502061804 53 0 0.0 0.0 0.00 0.00 0.00 88 1012.3
20260502060904 53 0 0.0 0.0 0.00 0.00 0.00 88 1012.3
20260502060004 53 0 0.0 0.0 0.00 0.00 0.00 88 1012.5
20260502055404 53 0 0.0 0.0 0.00 0.00 0.00 88 1012.4
20260502054504 53 0 0.0 0.0 0.00 0.00 0.00 88 1012.5
20260502053604 53 0 0.0 0.0 0.00 0.00 0.00 88 1012.7
20260502052725 53 0 0.0 0.0 0.00 0.00 0.00 88 1012.6
20260502051825 53 0 0.0 0.0 0.00 0.00 0.00 87 1012.8
20260502050925 53 0 0.0 0.0 0.00 0.00 0.00 87 1012.9
20260502050004 53 0 0.0 0.0 0.00 0.00 0.00 87 1013.0
20260502045404 53 0 0.0 0.0 0.00 0.00 0.00 87 1013.1
20260502044504 54 0 0.0 0.0 0.00 0.00 0.00 86 1013.1
20260502043604 54 0 0.0 0.0 0.00 0.00 0.00 86 1013.1
20260502042725 54 0 0.0 0.0 0.00 0.00 0.00 86 1013.2
20260502041825 54 0 0.0 0.0 0.00 0.00 0.00 87 1013.2
20260502040904 54 0 0.0 0.0 0.00 0.00 0.00 86 1013.2
20260502040005 54 0 0.0 0.0 0.00 0.00 0.00 86 1013.3
20260502035404 54 0 0.0 0.0 0.00 0.00 0.00 86 1013.3
20260502034504 54 0 0.0 0.0 0.00 0.00 0.00 86 1013.4
20260502033604 54 0 0.0 0.0 0.00 0.00 0.00 85 1013.3
20260502032704 54 0 0.0 0.0 0.00 0.00 0.00 85 1013.3
20260502031804 54 0 0.0 0.0 0.00 0.00 0.00 85 1013.3
20260502030904 54 0 0.0 0.0 0.00 0.00 0.00 85 1013.4
20260502030004 54 0 0.0 0.0 0.00 0.00 0.00 84 1013.5
20260502025404 54 0 0.0 0.0 0.00 0.00 0.00 84 1013.6
20260502024504 55 0 0.0 0.0 0.00 0.00 0.00 84 1013.6
20260502023604 55 0 0.0 0.0 0.00 0.00 0.00 84 1013.5
20260502022704 55 0 0.0 2.0 0.00 0.00 0.00 83 1013.5
20260502021804 55 0 0.0 0.0 0.00 0.00 0.00 83 1013.7
20260502020925 55 0 0.0 0.0 0.00 0.00 0.00 83 1013.7
20260502020004 55 0 0.0 0.0 0.00 0.00 0.00 83 1013.6
20260502015404 55 0 0.0 0.0 0.00 0.00 0.00 84 1013.7
20260502014504 55 0 0.0 2.0 0.00 0.00 0.00 83 1013.6
20260502013604 55 0 0.0 0.0 0.00 0.00 0.00 83 1013.5
20260502012704 55 0 0.0 2.0 0.00 0.00 0.00 83 1013.4
20260502011803 54 0 0.0 2.0 0.00 0.00 0.00 83 1013.5
20260502010904 54 0 0.0 0.0 0.00 0.00 0.00 83 1013.6
20260502010004 54 0 0.0 0.0 0.00 0.00 0.00 83 1013.1
20260502005404 54 0 0.0 0.0 0.00 0.00 0.00 82 1013.1
20260502004504 54 0 0.0 0.0 0.00 0.00 0.00 82 1013.2
20260502003625 54 0 0.0 0.0 0.00 0.00 0.00 82 1013.0
20260502002725 54 0 0.0 2.0 0.00 0.00 0.00 81 1012.7
20260502001803 55 0 0.0 2.0 0.00 0.00 0.00 81 1012.7
20260502000925 55 0 0.0 2.0 0.00 0.00 0.00 80 1012.8
20260502000004 55 0 0.0 2.0 0.00 0.00 0.00 79 1012.8
20260501235404 56 0 0.0 2.0 0.00 0.00 0.00 78 1013.0
20260501234503 56 0 0.0 4.0 0.00 0.00 0.00 77 1012.9
20260501233603 56 0 0.0 4.0 0.00 0.00 0.00 76 1012.9